Time,TemperatureF,DewpointF,PressureIn,WindDirection,WindDirectionDegrees,WindSpeedMPH,WindSpeedGustMPH,Humidity,HourlyPrecipIn,Conditions,Clouds,dailyrainin,SoftwareType,DateUTC
2013-03-24 00:00:00,28.3,21.1,30.03,NE,45,1.6,3.1,74,0.00,,,0.00,WUHU216HW,2013-03-24 05:00:00,
2013-03-24 00:05:00,28.3,21.3,30.03,NE,45,2.9,3.1,75,0.00,,,0.00,WUHU216HW,2013-03-24 05:05:00,
2013-03-24 00:10:00,28.3,21.3,30.03,East,90,0.9,2.9,75,0.00,,,0.00,WUHU216HW,2013-03-24 05:10:00,
2013-03-24 00:15:00,28.3,21.3,30.03,NNE,23,1.8,2.9,75,0.00,,,0.00,WUHU216HW,2013-03-24 05:15:00,
2013-03-24 00:20:00,28.3,21.3,30.03,NNE,23,0.2,2.0,75,0.00,,,0.00,WUHU216HW,2013-03-24 05:20:00,
2013-03-24 00:25:00,28.3,21.3,30.03,NE,45,0.7,2.0,75,0.00,,,0.00,WUHU216HW,2013-03-24 05:25:00,
2013-03-24 00:30:00,28.3,21.3,30.03,ENE,68,1.1,2.5,75,0.00,,,0.00,WUHU216HW,2013-03-24 05:30:00,
2013-03-24 00:35:00,28.4,21.8,30.03,NE,45,1.6,3.4,76,0.00,,,0.00,WUHU216HW,2013-03-24 05:35:00,
2013-03-24 00:40:00,28.4,21.5,30.03,ENE,68,2.0,3.4,75,0.00,,,0.00,WUHU216HW,2013-03-24 05:40:00,
2013-03-24 00:45:00,28.4,21.8,30.03,ENE,68,0.7,2.5,76,0.00,,,0.00,WUHU216HW,2013-03-24 05:45:00,
2013-03-24 00:50:00,28.4,21.5,30.03,NE,45,1.6,3.1,75,0.00,,,0.00,WUHU216HW,2013-03-24 05:50:00,
2013-03-24 00:55:00,28.4,21.5,30.03,ENE,68,1.1,3.1,75,0.00,,,0.00,WUHU216HW,2013-03-24 05:55:00,
2013-03-24 01:00:00,28.4,21.5,30.02,ESE,113,1.6,2.9,75,0.00,,,0.00,WUHU216HW,2013-03-24 06:00:00,
2013-03-24 01:05:00,28.3,21.6,30.02,ENE,68,1.8,2.7,76,0.00,,,0.00,WUHU216HW,2013-03-24 06:05:00,
2013-03-24 01:10:00,28.4,22.2,30.02,East,90,1.3,3.1,77,0.00,,,0.00,WUHU216HW,2013-03-24 06:10:00,
2013-03-24 01:15:00,28.4,21.8,30.02,ENE,68,3.4,3.6,76,0.00,,,0.00,WUHU216HW,2013-03-24 06:15:00,
2013-03-24 01:20:00,28.4,21.8,30.02,East,90,1.8,3.6,76,0.00,,,0.00,WUHU216HW,2013-03-24 06:20:00,
2013-03-24 01:25:00,28.4,22.2,30.02,ESE,113,4.3,4.3,77,0.00,,,0.00,WUHU216HW,2013-03-24 06:25:00,
2013-03-24 01:30:00,28.4,22.2,30.02,East,90,3.6,4.3,77,0.00,,,0.00,WUHU216HW,2013-03-24 06:30:00,
2013-03-24 01:35:00,28.4,22.2,30.02,East,90,4.5,4.5,77,0.00,,,0.00,WUHU216HW,2013-03-24 06:35:00,
2013-03-24 01:40:00,28.4,22.2,30.02,ESE,113,2.0,4.5,77,0.00,,,0.00,WUHU216HW,2013-03-24 06:40:00,
2013-03-24 01:45:00,28.4,22.2,30.02,ENE,68,0.9,4.5,77,0.00,,,0.00,WUHU216HW,2013-03-24 06:45:00,
2013-03-24 01:50:00,28.4,22.4,30.01,East,90,2.5,2.5,78,0.00,,,0.00,WUHU216HW,2013-03-24 06:50:00,
2013-03-24 01:55:00,28.4,22.4,30.01,ESE,113,2.2,2.5,78,0.00,,,0.00,WUHU216HW,2013-03-24 06:55:00,
2013-03-24 02:00:00,28.4,22.8,30.01,NE,45,1.6,2.9,79,0.00,,,0.00,WUHU216HW,2013-03-24 07:00:00,
2013-03-24 02:05:00,28.4,22.8,30.01,East,90,1.8,2.9,79,0.00,,,0.00,WUHU216HW,2013-03-24 07:05:00,
2013-03-24 02:10:00,28.4,22.8,30.01,East,90,0.4,2.9,79,0.00,,,0.00,WUHU216HW,2013-03-24 07:10:00,
2013-03-24 02:15:00,28.4,22.8,30.00,NE,45,3.1,3.4,79,0.00,,,0.00,WUHU216HW,2013-03-24 07:15:00,
2013-03-24 02:20:00,28.4,22.8,30.00,East,90,1.6,4.0,79,0.00,,,0.00,WUHU216HW,2013-03-24 07:20:00,
2013-03-24 02:25:00,28.4,22.8,30.00,East,90,1.8,4.7,79,0.00,,,0.00,WUHU216HW,2013-03-24 07:25:00,
2013-03-24 02:30:00,28.4,22.8,30.00,ESE,113,2.9,4.7,79,0.00,,,0.00,WUHU216HW,2013-03-24 07:30:00,
2013-03-24 02:35:00,28.4,22.4,29.99,ENE,68,3.4,3.4,78,0.00,,,0.00,WUHU216HW,2013-03-24 07:35:00,
2013-03-24 02:40:00,28.4,22.4,29.99,ENE,68,4.0,5.4,78,0.00,,,0.00,WUHU216HW,2013-03-24 07:40:00,
2013-03-24 02:45:00,28.4,22.4,29.99,East,90,2.5,5.4,78,0.00,,,0.00,WUHU216HW,2013-03-24 07:45:00,
2013-03-24 02:50:00,28.4,22.4,29.99,ENE,68,2.0,5.4,78,0.00,,,0.00,WUHU216HW,2013-03-24 07:50:00,
2013-03-24 02:55:00,28.4,22.4,29.99,NE,45,3.6,4.7,78,0.00,,,0.00,WUHU216HW,2013-03-24 07:55:00,
2013-03-24 03:00:00,28.4,22.4,29.99,NE,45,3.6,4.7,78,0.00,,,0.00,WUHU216HW,2013-03-24 08:00:00,
2013-03-24 03:05:00,28.4,22.4,29.98,NE,45,3.4,4.7,78,0.00,,,0.00,WUHU216HW,2013-03-24 08:05:00,
2013-03-24 03:10:00,28.4,22.4,29.98,NNE,23,2.5,5.6,78,0.00,,,0.00,WUHU216HW,2013-03-24 08:10:00,
2013-03-24 03:15:00,28.3,22.6,29.98,East,90,3.6,5.6,79,0.00,,,0.00,WUHU216HW,2013-03-24 08:15:00,
2013-03-24 03:20:00,28.3,22.2,29.98,NE,45,1.3,4.0,78,0.00,,,0.00,WUHU216HW,2013-03-24 08:20:00,
2013-03-24 03:25:00,28.3,22.6,29.98,NE,45,1.6,4.9,79,0.00,,,0.00,WUHU216HW,2013-03-24 08:25:00,
2013-03-24 03:30:00,28.3,22.6,29.97,NNE,23,2.2,4.9,79,0.00,,,0.00,WUHU216HW,2013-03-24 08:30:00,
2013-03-24 03:35:00,28.3,22.6,29.97,NE,45,2.5,4.0,79,0.00,,,0.00,WUHU216HW,2013-03-24 08:35:00,
2013-03-24 03:40:00,28.3,22.6,29.97,NE,45,1.8,4.0,79,0.00,,,0.00,WUHU216HW,2013-03-24 08:40:00,
2013-03-24 03:45:00,28.3,22.6,29.97,NE,45,2.9,4.3,79,0.00,,,0.00,WUHU216HW,2013-03-24 08:45:00,
2013-03-24 03:50:00,28.3,22.6,29.96,NNE,23,3.4,6.5,79,0.00,,,0.00,WUHU216HW,2013-03-24 08:50:00,
2013-03-24 03:55:00,28.3,22.6,29.96,ENE,68,2.5,6.5,79,0.00,,,0.00,WUHU216HW,2013-03-24 08:55:00,
2013-03-24 04:00:00,28.3,22.6,29.96,NNE,23,2.9,4.3,79,0.00,,,0.00,WUHU216HW,2013-03-24 09:00:00,
2013-03-24 04:05:00,28.3,22.9,29.96,NE,45,1.8,4.5,80,0.00,,,0.00,WUHU216HW,2013-03-24 09:05:00,
2013-03-24 04:10:00,28.3,22.9,29.96,NNE,23,1.3,4.5,80,0.00,,,0.00,WUHU216HW,2013-03-24 09:10:00,
2013-03-24 04:15:00,28.3,22.9,29.96,North,0,2.5,4.7,80,0.00,,,0.00,WUHU216HW,2013-03-24 09:15:00,
2013-03-24 04:20:00,28.3,22.9,29.95,North,0,4.0,5.4,80,0.00,,,0.00,WUHU216HW,2013-03-24 09:20:00,
2013-03-24 04:25:00,28.3,22.9,29.95,NE,45,2.7,5.4,80,0.00,,,0.00,WUHU216HW,2013-03-24 09:25:00,
2013-03-24 04:30:00,28.3,22.9,29.95,East,90,2.2,4.0,80,0.00,,,0.00,WUHU216HW,2013-03-24 09:30:00,
2013-03-24 04:35:00,28.3,22.9,29.95,NNE,23,5.6,5.6,80,0.00,,,0.00,WUHU216HW,2013-03-24 09:35:00,
2013-03-24 04:40:00,28.3,22.9,29.95,NNE,23,3.4,5.8,80,0.00,,,0.00,WUHU216HW,2013-03-24 09:40:00,
2013-03-24 04:45:00,28.3,23.1,29.95,NNE,23,2.9,5.8,81,0.00,,,0.00,WUHU216HW,2013-03-24 09:45:00,
2013-03-24 04:50:00,28.3,23.1,29.95,NNE,23,3.1,5.1,81,0.00,,,0.00,WUHU216HW,2013-03-24 09:50:00,
2013-03-24 04:55:00,28.3,22.9,29.95,NNE,23,2.0,3.8,80,0.00,,,0.00,WUHU216HW,2013-03-24 09:55:00,
2013-03-24 05:00:00,28.4,23.0,29.95,ENE,68,1.3,3.8,80,0.00,,,0.00,WUHU216HW,2013-03-24 10:00:00,
2013-03-24 05:05:00,28.4,23.0,29.95,ENE,68,2.0,4.3,80,0.00,,,0.00,WUHU216HW,2013-03-24 10:05:00,
2013-03-24 05:10:00,28.4,23.0,29.95,ENE,68,3.4,4.3,80,0.00,,,0.00,WUHU216HW,2013-03-24 10:10:00,
2013-03-24 05:15:00,28.4,23.3,29.95,NNE,23,1.1,4.5,81,0.00,,,0.00,WUHU216HW,2013-03-24 10:15:00,
2013-03-24 05:20:00,28.4,23.3,29.94,East,90,3.1,5.4,81,0.00,,,0.00,WUHU216HW,2013-03-24 10:20:00,
2013-03-24 05:25:00,28.4,23.3,29.94,ENE,68,4.7,5.4,81,0.00,,,0.00,WUHU216HW,2013-03-24 10:25:00,
2013-03-24 05:30:00,28.4,23.3,29.94,NNE,23,3.1,4.9,81,0.00,,,0.00,WUHU216HW,2013-03-24 10:30:00,
2013-03-24 05:35:00,28.4,23.3,29.94,NNE,23,3.1,4.7,81,0.00,,,0.00,WUHU216HW,2013-03-24 10:35:00,
2013-03-24 05:40:00,28.4,23.3,29.94,NE,45,2.7,4.3,81,0.00,,,0.00,WUHU216HW,2013-03-24 10:40:00,
2013-03-24 05:45:00,28.4,23.6,29.93,NE,45,4.3,4.9,82,0.00,,,0.00,WUHU216HW,2013-03-24 10:45:00,
2013-03-24 05:50:00,28.4,23.6,29.93,North,0,4.3,4.9,82,0.00,,,0.00,WUHU216HW,2013-03-24 10:50:00,
2013-03-24 05:55:00,28.4,23.6,29.93,North,0,2.9,4.9,82,0.00,,,0.00,WUHU216HW,2013-03-24 10:55:00,
2013-03-24 06:00:00,28.4,23.6,29.93,NNE,23,2.5,5.1,82,0.00,,,0.00,WUHU216HW,2013-03-24 11:00:00,
2013-03-24 06:05:00,28.4,23.6,29.93,North,0,3.4,5.1,82,0.00,,,0.00,WUHU216HW,2013-03-24 11:05:00,
2013-03-24 06:10:00,28.4,23.6,29.93,NNE,23,4.5,4.9,82,0.00,,,0.00,WUHU216HW,2013-03-24 11:10:00,
2013-03-24 06:15:00,28.4,23.6,29.93,North,0,3.1,4.9,82,0.00,,,0.00,WUHU216HW,2013-03-24 11:15:00,
2013-03-24 06:20:00,28.6,23.5,29.93,ENE,68,4.7,4.7,81,0.00,,,0.00,WUHU216HW,2013-03-24 11:20:00,
2013-03-24 06:25:00,28.8,23.4,29.93,ENE,68,4.9,6.9,80,0.00,,,0.00,WUHU216HW,2013-03-24 11:25:00,
2013-03-24 06:30:00,29.0,23.6,29.93,NE,45,4.5,6.9,80,0.00,,,0.00,WUHU216HW,2013-03-24 11:30:00,
2013-03-24 06:35:00,29.0,23.3,29.93,NE,45,4.0,6.3,79,0.00,,,0.00,WUHU216HW,2013-03-24 11:35:00,
2013-03-24 06:40:00,29.0,23.3,29.92,NE,45,6.3,6.3,79,0.00,,,0.00,WUHU216HW,2013-03-24 11:40:00,
2013-03-24 06:45:00,29.0,23.3,29.92,NE,45,4.7,7.2,79,0.00,,,0.00,WUHU216HW,2013-03-24 11:45:00,
2013-03-24 06:50:00,29.2,23.5,29.92,NNE,23,6.9,7.2,79,0.00,,,0.00,WUHU216HW,2013-03-24 11:50:00,
2013-03-24 06:55:00,29.2,23.8,29.92,NE,45,2.7,6.9,80,0.00,,,0.00,WUHU216HW,2013-03-24 11:55:00,
2013-03-24 07:00:00,29.2,23.5,29.93,ENE,68,6.3,6.9,79,0.00,,,0.00,WUHU216HW,2013-03-24 12:00:00,
2013-03-24 07:05:00,29.2,23.5,29.92,NNE,23,3.4,6.3,79,0.00,,,0.00,WUHU216HW,2013-03-24 12:05:00,
2013-03-24 07:10:00,29.2,23.8,29.92,ENE,68,4.3,8.1,80,0.00,,,0.00,WUHU216HW,2013-03-24 12:10:00,
2013-03-24 07:15:00,29.2,23.8,29.92,ENE,68,4.5,8.1,80,0.00,,,0.00,WUHU216HW,2013-03-24 12:15:00,
2013-03-24 07:20:00,29.2,23.8,29.92,ENE,68,4.9,7.6,80,0.00,,,0.00,WUHU216HW,2013-03-24 12:20:00,
2013-03-24 07:25:00,29.2,23.8,29.92,ENE,68,5.8,6.9,80,0.00,,,0.00,WUHU216HW,2013-03-24 12:25:00,
2013-03-24 07:30:00,29.2,24.0,29.92,ENE,68,8.7,9.4,81,0.00,,,0.00,WUHU216HW,2013-03-24 12:30:00,
2013-03-24 07:35:00,29.2,24.0,29.92,NE,45,9.2,9.4,81,0.00,,,0.00,WUHU216HW,2013-03-24 12:35:00,
2013-03-24 07:40:00,29.2,24.0,29.92,ENE,68,10.7,10.7,81,0.00,,,0.00,WUHU216HW,2013-03-24 12:40:00,
2013-03-24 07:45:00,29.2,24.3,29.92,NE,45,6.3,10.7,82,0.00,,,0.00,WUHU216HW,2013-03-24 12:45:00,
2013-03-24 07:50:00,29.2,24.3,29.92,ENE,68,4.0,10.7,82,0.00,,,0.00,WUHU216HW,2013-03-24 12:50:00,
2013-03-24 07:55:00,29.2,24.7,29.92,NE,45,9.8,10.3,83,0.00,,,0.00,WUHU216HW,2013-03-24 12:55:00,
2013-03-24 08:00:00,29.2,24.7,29.92,NE,45,6.0,12.8,83,0.00,,,0.00,WUHU216HW,2013-03-24 13:00:00,
2013-03-24 08:05:00,29.2,24.9,29.92,NNE,23,5.4,12.8,84,0.00,,,0.00,WUHU216HW,2013-03-24 13:05:00,
2013-03-24 08:10:00,29.3,25.1,29.91,NE,45,8.1,11.4,84,0.00,,,0.00,WUHU216HW,2013-03-24 13:10:00,
2013-03-24 08:15:00,29.3,25.4,29.91,NE,45,4.7,11.4,85,0.00,,,0.00,WUHU216HW,2013-03-24 13:15:00,
2013-03-24 08:20:00,29.5,25.6,29.91,NNE,23,5.4,8.9,85,0.00,,,0.00,WUHU216HW,2013-03-24 13:20:00,
2013-03-24 08:25:00,29.5,25.3,29.91,ENE,68,8.3,9.6,84,0.00,,,0.00,WUHU216HW,2013-03-24 13:25:00,
2013-03-24 08:30:00,29.5,25.6,29.91,ENE,68,4.7,9.6,85,0.00,,,0.00,WUHU216HW,2013-03-24 13:30:00,
2013-03-24 08:35:00,29.7,25.5,29.91,NE,45,6.9,9.2,84,0.00,,,0.00,WUHU216HW,2013-03-24 13:35:00,
2013-03-24 08:40:00,29.7,25.7,29.91,SE,135,6.3,9.2,85,0.00,,,0.00,WUHU216HW,2013-03-24 13:40:00,
2013-03-24 08:45:00,29.7,25.7,29.91,ESE,113,5.6,9.2,85,0.00,,,0.00,WUHU216HW,2013-03-24 13:45:00,
2013-03-24 08:50:00,29.5,25.6,29.91,NE,45,2.9,8.1,85,0.00,,,0.00,WUHU216HW,2013-03-24 13:50:00,
2013-03-24 08:55:00,29.5,25.6,29.91,ENE,68,4.3,7.6,85,0.00,,,0.00,WUHU216HW,2013-03-24 13:55:00,
2013-03-24 09:00:00,29.3,25.7,29.91,ENE,68,4.7,8.3,86,0.00,,,0.00,WUHU216HW,2013-03-24 14:00:00,
2013-03-24 09:05:00,29.2,25.5,29.91,North,0,7.2,8.5,86,0.00,,,0.00,WUHU216HW,2013-03-24 14:05:00,
2013-03-24 09:10:00,29.2,25.5,29.91,ENE,68,6.5,8.9,86,0.00,,,0.00,WUHU216HW,2013-03-24 14:10:00,
2013-03-24 09:15:00,29.2,25.5,29.91,NNE,23,6.9,10.7,86,0.00,,,0.00,WUHU216HW,2013-03-24 14:15:00,
2013-03-24 09:20:00,29.3,25.7,29.90,NNE,23,6.3,11.0,86,0.00,,,0.00,WUHU216HW,2013-03-24 14:20:00,
2013-03-24 09:25:00,29.3,25.7,29.90,ENE,68,8.7,13.0,86,0.00,,,0.00,WUHU216HW,2013-03-24 14:25:00,
2013-03-24 09:30:00,29.3,25.7,29.90,NE,45,6.3,13.0,86,0.00,,,0.00,WUHU216HW,2013-03-24 14:30:00,
2013-03-24 09:35:00,29.5,25.8,29.90,NE,45,9.8,9.8,86,0.00,,,0.00,WUHU216HW,2013-03-24 14:35:00,
2013-03-24 09:40:00,29.3,25.7,29.90,NE,45,8.3,11.2,86,0.00,,,0.00,WUHU216HW,2013-03-24 14:40:00,
2013-03-24 09:45:00,29.3,25.7,29.90,NNE,23,7.6,11.6,86,0.00,,,0.00,WUHU216HW,2013-03-24 14:45:00,
2013-03-24 09:50:00,29.5,25.8,29.90,NE,45,7.6,11.6,86,0.00,,,0.00,WUHU216HW,2013-03-24 14:50:00,
2013-03-24 09:55:00,29.5,25.8,29.90,NE,45,5.4,11.0,86,0.00,,,0.00,WUHU216HW,2013-03-24 14:55:00,
2013-03-24 10:00:00,29.5,25.8,29.90,NE,45,5.1,12.8,86,0.00,,,0.00,WUHU216HW,2013-03-24 15:00:00,
2013-03-24 10:05:00,29.5,25.8,29.90,NE,45,4.0,12.8,86,0.00,,,0.00,WUHU216HW,2013-03-24 15:05:00,
2013-03-24 10:10:00,29.7,26.0,29.89,NE,45,6.3,14.3,86,0.00,,,0.00,WUHU216HW,2013-03-24 15:10:00,
2013-03-24 10:15:00,29.5,25.6,29.89,East,90,7.4,14.3,85,0.00,,,0.00,WUHU216HW,2013-03-24 15:15:00,
2013-03-24 10:20:00,29.5,25.6,29.89,NE,45,9.8,11.6,85,0.00,,,0.00,WUHU216HW,2013-03-24 15:20:00,
2013-03-24 10:25:00,29.5,25.8,29.89,NE,45,4.7,11.2,86,0.00,,,0.00,WUHU216HW,2013-03-24 15:25:00,
2013-03-24 10:30:00,29.7,26.0,29.88,NE,45,6.5,10.3,86,0.00,,,0.00,WUHU216HW,2013-03-24 15:30:00,
2013-03-24 10:35:00,29.3,25.7,29.88,NNE,23,8.5,13.0,86,0.00,,,0.00,WUHU216HW,2013-03-24 15:35:00,
2013-03-24 10:40:00,29.3,25.7,29.88,NE,45,8.1,13.0,86,0.00,,,0.00,WUHU216HW,2013-03-24 15:40:00,
2013-03-24 10:45:00,29.7,26.0,29.89,NE,45,5.6,12.8,86,0.00,,,0.00,WUHU216HW,2013-03-24 15:45:00,
2013-03-24 10:50:00,30.1,26.1,29.88,NE,45,7.6,11.6,85,0.00,,,0.00,WUHU216HW,2013-03-24 15:50:00,
2013-03-24 10:55:00,30.2,26.0,29.88,NNE,23,7.6,11.6,84,0.00,,,0.00,WUHU216HW,2013-03-24 15:55:00,
2013-03-24 11:00:00,30.1,25.6,29.88,NE,45,10.5,12.3,83,0.00,,,0.00,WUHU216HW,2013-03-24 16:00:00,
2013-03-24 11:05:00,30.2,26.3,29.88,North,0,10.5,12.3,85,0.00,,,0.00,WUHU216HW,2013-03-24 16:05:00,
2013-03-24 11:10:00,29.9,25.9,29.88,NNE,23,6.7,13.9,85,0.00,,,0.00,WUHU216HW,2013-03-24 16:10:00,
2013-03-24 11:15:00,30.1,26.1,29.87,NE,45,4.5,13.9,85,0.00,,,0.00,WUHU216HW,2013-03-24 16:15:00,
2013-03-24 11:20:00,30.4,26.2,29.87,NNE,23,9.2,11.9,84,0.00,,,0.00,WUHU216HW,2013-03-24 16:20:00,
2013-03-24 11:25:00,30.6,26.6,29.86,ESE,113,6.9,12.8,85,0.00,,,0.00,WUHU216HW,2013-03-24 16:25:00,
2013-03-24 11:30:00,31.1,26.7,29.86,NE,45,8.1,12.8,83,0.00,,,0.00,WUHU216HW,2013-03-24 16:30:00,
2013-03-24 11:35:00,31.1,26.7,29.86,NNE,23,12.3,13.4,83,0.00,,,0.00,WUHU216HW,2013-03-24 16:35:00,
2013-03-24 11:40:00,30.6,26.1,29.86,NE,45,12.5,16.6,83,0.00,,,0.00,WUHU216HW,2013-03-24 16:40:00,
2013-03-24 11:45:00,31.0,26.5,29.86,NNE,23,13.4,16.6,83,0.00,,,0.00,WUHU216HW,2013-03-24 16:45:00,
2013-03-24 11:50:00,31.0,26.1,29.85,NNE,23,14.8,14.8,82,0.00,,,0.00,WUHU216HW,2013-03-24 16:50:00,
2013-03-24 11:55:00,30.6,25.7,29.85,NNE,23,12.8,15.0,82,0.00,,,0.00,WUHU216HW,2013-03-24 16:55:00,
2013-03-24 12:00:00,31.3,26.8,29.86,NNE,23,8.9,15.0,83,0.00,,,0.00,WUHU216HW,2013-03-24 17:00:00,
2013-03-24 12:05:00,31.1,26.7,29.86,North,0,7.6,14.8,83,0.00,,,0.00,WUHU216HW,2013-03-24 17:05:00,
2013-03-24 12:10:00,31.1,26.7,29.85,NE,45,10.5,14.8,83,0.00,,,0.00,WUHU216HW,2013-03-24 17:10:00,
2013-03-24 12:15:00,31.5,27.0,29.85,North,0,8.5,14.3,83,0.00,,,0.00,WUHU216HW,2013-03-24 17:15:00,
2013-03-24 12:20:00,31.3,26.8,29.85,NE,45,6.9,13.6,83,0.00,,,0.00,WUHU216HW,2013-03-24 17:20:00,
2013-03-24 12:25:00,31.5,27.0,29.85,ESE,113,9.6,13.2,83,0.00,,,0.00,WUHU216HW,2013-03-24 17:25:00,
2013-03-24 12:30:00,31.5,26.4,29.85,North,0,8.9,12.8,81,0.00,,,0.00,WUHU216HW,2013-03-24 17:30:00,
2013-03-24 12:35:00,31.3,26.8,29.85,NNE,23,5.4,12.5,83,0.00,,,0.00,WUHU216HW,2013-03-24 17:35:00,
2013-03-24 12:40:00,31.5,26.6,29.85,NNE,23,6.9,12.5,82,0.00,,,0.00,WUHU216HW,2013-03-24 17:40:00,
2013-03-24 12:45:00,31.9,27.0,29.85,NNE,23,10.1,12.5,82,0.00,,,0.00,WUHU216HW,2013-03-24 17:45:00,
2013-03-24 12:50:00,31.7,26.6,29.85,North,0,7.6,11.2,81,0.01,,,0.01,WUHU216HW,2013-03-24 17:50:00,
2013-03-24 12:55:00,32.2,27.1,29.85,ENE,68,4.0,11.6,81,0.01,,,0.01,WUHU216HW,2013-03-24 17:55:00,
2013-03-24 13:00:00,32.4,27.5,29.85,NNE,23,10.5,11.6,82,0.01,,,0.01,WUHU216HW,2013-03-24 18:00:00,
2013-03-24 13:05:00,32.2,27.1,29.85,NE,45,10.5,11.4,81,0.01,,,0.01,WUHU216HW,2013-03-24 18:05:00,
2013-03-24 13:10:00,32.2,27.4,29.84,NE,45,6.3,13.4,82,0.01,,,0.01,WUHU216HW,2013-03-24 18:10:00,
2013-03-24 13:15:00,32.8,27.3,29.84,NE,45,6.7,13.4,80,0.01,,,0.01,WUHU216HW,2013-03-24 18:15:00,
2013-03-24 13:20:00,32.9,27.5,29.84,NE,45,8.7,13.0,80,0.01,,,0.01,WUHU216HW,2013-03-24 18:20:00,
2013-03-24 13:25:00,32.9,27.1,29.84,NNE,23,12.5,12.5,79,0.01,,,0.01,WUHU216HW,2013-03-24 18:25:00,
2013-03-24 13:30:00,32.4,27.0,29.83,NNE,23,9.8,13.4,80,0.01,,,0.01,WUHU216HW,2013-03-24 18:30:00,
2013-03-24 13:35:00,32.2,27.1,29.83,North,0,13.0,13.4,81,0.01,,,0.01,WUHU216HW,2013-03-24 18:35:00,
2013-03-24 13:40:00,32.4,27.0,29.83,NNE,23,10.7,15.7,80,0.01,,,0.01,WUHU216HW,2013-03-24 18:40:00,
2013-03-24 13:45:00,32.6,27.1,29.82,NE,45,11.2,15.7,80,0.01,,,0.01,WUHU216HW,2013-03-24 18:45:00,
2013-03-24 13:50:00,32.4,26.6,29.82,NNE,23,8.1,14.5,79,0.00,,,0.01,WUHU216HW,2013-03-24 18:50:00,
2013-03-24 13:55:00,32.8,26.6,29.82,NE,45,12.5,14.5,78,0.00,,,0.01,WUHU216HW,2013-03-24 18:55:00,
2013-03-24 14:00:00,32.4,26.6,29.82,NNE,23,15.4,15.4,79,0.00,,,0.01,WUHU216HW,2013-03-24 19:00:00,
2013-03-24 14:05:00,32.2,26.5,29.82,North,0,11.0,15.4,79,0.00,,,0.01,WUHU216HW,2013-03-24 19:05:00,
2013-03-24 14:10:00,32.0,26.3,29.81,NE,45,6.3,14.3,79,0.00,,,0.01,WUHU216HW,2013-03-24 19:10:00,
2013-03-24 14:15:00,32.0,26.6,29.81,NE,45,8.1,13.2,80,0.00,,,0.01,WUHU216HW,2013-03-24 19:15:00,
2013-03-24 14:20:00,32.0,26.9,29.81,NE,45,6.3,13.2,81,0.00,,,0.01,WUHU216HW,2013-03-24 19:20:00,
2013-03-24 14:25:00,32.0,26.3,29.81,North,0,10.1,13.0,79,0.00,,,0.01,WUHU216HW,2013-03-24 19:25:00,
2013-03-24 14:30:00,31.7,26.3,29.81,North,0,11.6,14.3,80,0.00,,,0.01,WUHU216HW,2013-03-24 19:30:00,
2013-03-24 14:35:00,31.7,26.3,29.81,NE,45,8.1,15.2,80,0.00,,,0.01,WUHU216HW,2013-03-24 19:35:00,
2013-03-24 14:40:00,31.7,25.9,29.80,NNE,23,7.2,15.2,79,0.00,,,0.01,WUHU216HW,2013-03-24 19:40:00,
2013-03-24 14:45:00,31.7,26.3,29.80,ENE,68,7.6,12.8,80,0.00,,,0.01,WUHU216HW,2013-03-24 19:45:00,
2013-03-24 14:50:00,31.9,26.1,29.80,NNE,23,8.1,12.8,79,0.00,,,0.01,WUHU216HW,2013-03-24 19:50:00,
2013-03-24 14:55:00,31.9,26.5,29.80,North,0,9.6,14.3,80,0.00,,,0.01,WUHU216HW,2013-03-24 19:55:00,
2013-03-24 15:00:00,32.2,26.5,29.80,NNE,23,15.7,15.7,79,0.00,,,0.01,WUHU216HW,2013-03-24 20:00:00,
2013-03-24 15:05:00,32.0,26.6,29.80,ENE,68,10.5,15.7,80,0.00,,,0.01,WUHU216HW,2013-03-24 20:05:00,
2013-03-24 15:10:00,32.2,26.8,29.80,NE,45,11.9,15.7,80,0.00,,,0.01,WUHU216HW,2013-03-24 20:10:00,
2013-03-24 15:15:00,32.2,26.8,29.80,NNE,23,7.4,13.9,80,0.00,,,0.01,WUHU216HW,2013-03-24 20:15:00,
2013-03-24 15:20:00,32.0,26.6,29.80,NNE,23,9.2,13.9,80,0.00,,,0.01,WUHU216HW,2013-03-24 20:20:00,
2013-03-24 15:25:00,32.0,26.9,29.80,NE,45,8.5,13.4,81,0.00,,,0.01,WUHU216HW,2013-03-24 20:25:00,
2013-03-24 15:30:00,31.9,27.4,29.80,NE,45,11.4,13.4,83,0.00,,,0.01,WUHU216HW,2013-03-24 20:30:00,
2013-03-24 15:35:00,31.7,27.2,29.79,NNE,23,11.0,12.1,83,0.00,,,0.01,WUHU216HW,2013-03-24 20:35:00,
2013-03-24 15:40:00,31.7,27.5,29.79,North,0,8.5,12.1,84,0.00,,,0.01,WUHU216HW,2013-03-24 20:40:00,
2013-03-24 15:45:00,31.5,27.5,29.78,NE,45,9.6,12.5,85,0.00,,,0.01,WUHU216HW,2013-03-24 20:45:00,
2013-03-24 15:50:00,31.3,27.4,29.79,North,0,8.3,15.0,85,0.00,,,0.01,WUHU216HW,2013-03-24 20:50:00,
2013-03-24 15:55:00,31.3,27.4,29.78,NNE,23,8.7,15.0,85,0.00,,,0.01,WUHU216HW,2013-03-24 20:55:00,
2013-03-24 16:00:00,31.5,27.5,29.78,NNE,23,9.2,12.3,85,0.00,,,0.01,WUHU216HW,2013-03-24 21:00:00,
2013-03-24 16:05:00,31.3,27.1,29.78,East,90,11.6,14.5,84,0.00,,,0.01,WUHU216HW,2013-03-24 21:05:00,
2013-03-24 16:10:00,31.3,27.6,29.78,NNE,23,9.4,14.5,86,0.00,,,0.01,WUHU216HW,2013-03-24 21:10:00,
2013-03-24 16:15:00,31.3,27.1,29.78,NNE,23,13.6,13.6,84,0.00,,,0.01,WUHU216HW,2013-03-24 21:15:00,
2013-03-24 16:20:00,31.3,27.6,29.78,North,0,10.3,13.6,86,0.00,,,0.01,WUHU216HW,2013-03-24 21:20:00,
2013-03-24 16:25:00,31.3,27.6,29.78,North,0,8.5,13.6,86,0.00,,,0.01,WUHU216HW,2013-03-24 21:25:00,
2013-03-24 16:30:00,31.3,27.1,29.78,NNE,23,11.4,13.6,84,0.00,,,0.01,WUHU216HW,2013-03-24 21:30:00,
2013-03-24 16:35:00,31.3,26.8,29.77,NNE,23,12.1,15.4,83,0.00,,,0.01,WUHU216HW,2013-03-24 21:35:00,
2013-03-24 16:40:00,31.3,26.8,29.78,NE,45,14.3,17.4,83,0.00,,,0.01,WUHU216HW,2013-03-24 21:40:00,
2013-03-24 16:45:00,31.5,27.0,29.77,NNE,23,9.2,17.9,83,0.00,,,0.01,WUHU216HW,2013-03-24 21:45:00,
2013-03-24 16:50:00,31.7,27.2,29.77,NE,45,12.1,17.9,83,0.00,,,0.01,WUHU216HW,2013-03-24 21:50:00,
2013-03-24 16:55:00,31.5,27.3,29.77,NNE,23,6.3,14.1,84,0.00,,,0.01,WUHU216HW,2013-03-24 21:55:00,
2013-03-24 17:00:00,31.3,26.8,29.77,NNE,23,9.8,14.1,83,0.00,,,0.01,WUHU216HW,2013-03-24 22:00:00,
2013-03-24 17:05:00,31.3,26.8,29.77,NNE,23,8.7,14.5,83,0.00,,,0.01,WUHU216HW,2013-03-24 22:05:00,
2013-03-24 17:10:00,31.1,26.9,29.77,NE,45,8.3,14.5,84,0.00,,,0.01,WUHU216HW,2013-03-24 22:10:00,
2013-03-24 17:15:00,30.8,26.8,29.77,NNE,23,10.5,13.2,85,0.00,,,0.01,WUHU216HW,2013-03-24 22:15:00,
2013-03-24 17:20:00,30.6,26.9,29.77,NE,45,4.9,12.1,86,0.00,,,0.01,WUHU216HW,2013-03-24 22:20:00,
2013-03-24 17:25:00,30.6,26.9,29.77,NNE,23,7.6,12.1,86,0.00,,,0.01,WUHU216HW,2013-03-24 22:25:00,
2013-03-24 17:30:00,30.6,26.9,29.78,NNE,23,9.2,12.1,86,0.00,,,0.01,WUHU216HW,2013-03-24 22:30:00,
2013-03-24 17:35:00,30.6,26.6,29.78,North,0,8.5,12.1,85,0.00,,,0.01,WUHU216HW,2013-03-24 22:35:00,
2013-03-24 17:40:00,30.8,26.3,29.78,NE,45,8.5,11.2,83,0.00,,,0.01,WUHU216HW,2013-03-24 22:40:00,
2013-03-24 17:45:00,30.8,26.3,29.78,NNE,23,9.4,11.2,83,0.00,,,0.01,WUHU216HW,2013-03-24 22:45:00,
2013-03-24 17:50:00,30.8,25.7,29.78,SE,135,9.2,11.4,81,0.00,,,0.01,WUHU216HW,2013-03-24 22:50:00,
2013-03-24 17:55:00,31.0,25.8,29.78,ENE,68,6.9,12.1,81,0.00,,,0.01,WUHU216HW,2013-03-24 22:55:00,
2013-03-24 18:00:00,30.8,25.7,29.78,NNE,23,11.9,12.3,81,0.00,,,0.01,WUHU216HW,2013-03-24 23:00:00,
2013-03-24 18:05:00,30.6,25.5,29.78,North,0,10.1,12.3,81,0.00,,,0.01,WUHU216HW,2013-03-24 23:05:00,
2013-03-24 18:10:00,30.6,25.7,29.78,North,0,6.3,12.8,82,0.00,,,0.01,WUHU216HW,2013-03-24 23:10:00,
2013-03-24 18:15:00,30.8,25.9,29.78,NNE,23,7.2,13.6,82,0.00,,,0.01,WUHU216HW,2013-03-24 23:15:00,
2013-03-24 18:20:00,30.8,25.7,29.79,NNE,23,6.0,15.2,81,0.00,,,0.01,WUHU216HW,2013-03-24 23:20:00,
2013-03-24 18:25:00,31.0,25.2,29.79,NE,45,9.8,15.2,79,0.00,,,0.01,WUHU216HW,2013-03-24 23:25:00,
2013-03-24 18:30:00,31.0,25.6,29.79,NNE,23,9.4,10.5,80,0.00,,,0.01,WUHU216HW,2013-03-24 23:30:00,
2013-03-24 18:35:00,31.0,25.6,29.79,North,0,12.3,12.3,80,0.00,,,0.01,WUHU216HW,2013-03-24 23:35:00,
2013-03-24 18:40:00,31.0,25.6,29.79,North,0,8.5,13.0,80,0.00,,,0.01,WUHU216HW,2013-03-24 23:40:00,
2013-03-24 18:45:00,30.8,25.4,29.79,North,0,7.4,13.0,80,0.00,,,0.01,WUHU216HW,2013-03-24 23:45:00,
2013-03-24 18:50:00,30.8,25.4,29.79,North,0,7.4,12.3,80,0.00,,,0.01,WUHU216HW,2013-03-24 23:50:00,
2013-03-24 18:55:00,31.0,25.2,29.80,NE,45,7.4,14.3,79,0.00,,,0.01,WUHU216HW,2013-03-24 23:55:00,
2013-03-24 19:00:00,30.8,25.0,29.80,North,0,4.7,14.3,79,0.00,,,0.01,WUHU216HW,2013-03-25 00:00:00,
2013-03-24 19:05:00,31.0,24.9,29.80,NE,45,6.5,10.5,78,0.00,,,0.01,WUHU216HW,2013-03-25 00:05:00,
2013-03-24 19:10:00,31.0,24.9,29.80,North,0,6.3,10.5,78,0.00,,,0.01,WUHU216HW,2013-03-25 00:10:00,
2013-03-24 19:15:00,31.0,24.9,29.80,NNE,23,7.8,11.9,78,0.00,,,0.01,WUHU216HW,2013-03-25 00:15:00,
2013-03-24 19:20:00,31.0,24.9,29.80,NE,45,8.3,11.9,78,0.00,,,0.01,WUHU216HW,2013-03-25 00:20:00,
2013-03-24 19:25:00,31.0,24.9,29.80,North,0,11.9,11.9,78,0.00,,,0.01,WUHU216HW,2013-03-25 00:25:00,
2013-03-24 19:30:00,31.0,24.9,29.81,NE,45,7.8,11.9,78,0.00,,,0.01,WUHU216HW,2013-03-25 00:30:00,
2013-03-24 19:35:00,30.8,24.8,29.81,NE,45,8.5,13.2,78,0.00,,,0.01,WUHU216HW,2013-03-25 00:35:00,
2013-03-24 19:40:00,30.8,24.4,29.81,North,0,9.2,13.2,77,0.00,,,0.01,WUHU216HW,2013-03-25 00:40:00,
2013-03-24 19:45:00,30.8,24.8,29.82,North,0,9.4,13.4,78,0.00,,,0.01,WUHU216HW,2013-03-25 00:45:00,
2013-03-24 19:50:00,30.8,24.4,29.82,NNE,23,9.8,13.4,77,0.00,,,0.01,WUHU216HW,2013-03-25 00:50:00,
2013-03-24 19:55:00,30.6,24.0,29.82,North,0,8.1,13.4,76,0.00,,,0.01,WUHU216HW,2013-03-25 00:55:00,
2013-03-24 20:00:00,30.6,23.6,29.82,North,0,10.7,13.9,75,0.00,,,0.01,WUHU216HW,2013-03-25 01:00:00,
2013-03-24 20:05:00,30.6,23.6,29.82,NNE,23,7.2,13.9,75,0.00,,,0.01,WUHU216HW,2013-03-25 01:05:00,
2013-03-24 20:10:00,30.4,23.4,29.83,North,0,8.7,11.2,75,0.00,,,0.01,WUHU216HW,2013-03-25 01:10:00,
2013-03-24 20:15:00,30.4,23.4,29.83,North,0,8.9,11.2,75,0.00,,,0.01,WUHU216HW,2013-03-25 01:15:00,
2013-03-24 20:20:00,30.4,23.4,29.83,North,0,8.1,11.0,75,0.00,,,0.01,WUHU216HW,2013-03-25 01:20:00,
2013-03-24 20:25:00,30.2,22.9,29.83,NNE,23,8.3,11.4,74,0.00,,,0.01,WUHU216HW,2013-03-25 01:25:00,
2013-03-24 20:30:00,30.2,22.9,29.83,NNE,23,8.1,11.9,74,0.00,,,0.01,WUHU216HW,2013-03-25 01:30:00,
2013-03-24 20:35:00,30.1,22.8,29.83,North,0,6.5,11.9,74,0.00,,,0.01,WUHU216HW,2013-03-25 01:35:00,
2013-03-24 20:40:00,29.9,22.6,29.83,NNE,23,5.4,9.6,74,0.00,,,0.01,WUHU216HW,2013-03-25 01:40:00,
2013-03-24 20:45:00,29.9,22.2,29.83,NNE,23,7.4,9.8,73,0.00,,,0.01,WUHU216HW,2013-03-25 01:45:00,
2013-03-24 20:50:00,29.9,22.2,29.83,North,0,6.5,9.8,73,0.00,,,0.01,WUHU216HW,2013-03-25 01:50:00,
2013-03-24 20:55:00,29.7,22.4,29.83,NNE,23,8.1,8.5,74,0.00,,,0.01,WUHU216HW,2013-03-25 01:55:00,
2013-03-24 21:00:00,29.5,22.2,29.83,North,0,5.4,8.5,74,0.00,,,0.01,WUHU216HW,2013-03-25 02:00:00,
2013-03-24 21:05:00,29.5,22.2,29.83,NNE,23,6.5,8.5,74,0.00,,,0.01,WUHU216HW,2013-03-25 02:05:00,
2013-03-24 21:10:00,29.3,22.1,29.83,NNE,23,6.5,8.3,74,0.00,,,0.01,WUHU216HW,2013-03-25 02:10:00,
2013-03-24 21:15:00,29.3,22.1,29.83,North,0,4.9,6.9,74,0.00,,,0.01,WUHU216HW,2013-03-25 02:15:00,
2013-03-24 21:20:00,29.3,22.4,29.83,NE,45,4.0,6.9,75,0.00,,,0.01,WUHU216HW,2013-03-25 02:20:00,
2013-03-24 21:25:00,29.3,22.4,29.83,NNE,23,4.7,6.9,75,0.00,,,0.01,WUHU216HW,2013-03-25 02:25:00,
2013-03-24 21:30:00,29.2,22.2,29.83,NNE,23,4.0,6.3,75,0.00,,,0.01,WUHU216HW,2013-03-25 02:30:00,
2013-03-24 21:35:00,29.2,22.2,29.83,NNE,23,3.1,6.3,75,0.00,,,0.01,WUHU216HW,2013-03-25 02:35:00,
2013-03-24 21:40:00,29.2,22.5,29.83,North,0,4.5,6.3,76,0.00,,,0.01,WUHU216HW,2013-03-25 02:40:00,
2013-03-24 21:45:00,29.0,22.1,29.83,North,0,4.7,6.7,75,0.00,,,0.01,WUHU216HW,2013-03-25 02:45:00,
2013-03-24 21:50:00,29.2,22.5,29.83,North,0,4.9,7.6,76,0.00,,,0.01,WUHU216HW,2013-03-25 02:50:00,
2013-03-24 21:55:00,29.2,22.5,29.83,NE,45,6.5,7.6,76,0.00,,,0.01,WUHU216HW,2013-03-25 02:55:00,
2013-03-24 22:00:00,29.2,22.2,29.83,NNE,23,4.5,6.9,75,0.00,,,0.01,WUHU216HW,2013-03-25 03:00:00,
2013-03-24 22:05:00,29.0,22.1,29.83,NNE,23,7.4,7.4,75,0.00,,,0.01,WUHU216HW,2013-03-25 03:05:00,
2013-03-24 22:10:00,29.0,22.3,29.83,NNE,23,7.4,7.4,76,0.00,,,0.01,WUHU216HW,2013-03-25 03:10:00,
2013-03-24 22:15:00,29.0,22.3,29.83,NNE,23,4.5,7.4,76,0.00,,,0.01,WUHU216HW,2013-03-25 03:15:00,
2013-03-24 22:20:00,29.0,22.3,29.82,North,0,5.1,8.9,76,0.00,,,0.01,WUHU216HW,2013-03-25 03:20:00,
2013-03-24 22:25:00,29.0,22.1,29.82,North,0,6.3,11.9,75,0.00,,,0.01,WUHU216HW,2013-03-25 03:25:00,
2013-03-24 22:30:00,29.2,22.2,29.82,NNE,23,9.2,11.9,75,0.00,,,0.01,WUHU216HW,2013-03-25 03:30:00,
2013-03-24 22:35:00,29.2,22.2,29.82,NNE,23,5.4,9.4,75,0.00,,,0.01,WUHU216HW,2013-03-25 03:35:00,
2013-03-24 22:40:00,29.2,22.2,29.82,North,0,4.0,9.2,75,0.00,,,0.01,WUHU216HW,2013-03-25 03:40:00,
2013-03-24 22:45:00,29.2,22.2,29.82,NNE,23,5.8,10.7,75,0.00,,,0.01,WUHU216HW,2013-03-25 03:45:00,
2013-03-24 22:50:00,29.2,22.2,29.82,NNE,23,8.7,10.7,75,0.00,,,0.01,WUHU216HW,2013-03-25 03:50:00,
2013-03-24 22:56:00,29.2,22.5,29.82,North,0,6.9,10.7,76,0.00,,,0.01,WUHU216HW,2013-03-25 03:56:00,
2013-03-24 23:00:00,29.2,22.2,29.82,NNE,23,9.2,10.7,75,0.00,,,0.01,WUHU216HW,2013-03-25 04:00:00,
2013-03-24 23:05:00,29.2,22.2,29.82,North,0,11.0,11.4,75,0.00,,,0.01,WUHU216HW,2013-03-25 04:05:00,
2013-03-24 23:10:00,29.2,22.2,29.81,NNE,23,11.9,11.9,75,0.00,,,0.01,WUHU216HW,2013-03-25 04:10:00,
2013-03-24 23:15:00,29.2,22.5,29.81,North,0,6.7,11.9,76,0.00,,,0.01,WUHU216HW,2013-03-25 04:15:00,
2013-03-24 23:20:00,29.2,22.2,29.81,NNE,23,8.5,11.4,75,0.00,,,0.01,WUHU216HW,2013-03-25 04:20:00,
2013-03-24 23:25:00,29.2,22.5,29.81,NNE,23,9.6,11.4,76,0.00,,,0.01,WUHU216HW,2013-03-25 04:25:00,
2013-03-24 23:30:00,29.2,22.2,29.81,North,0,12.3,12.3,75,0.00,,,0.01,WUHU216HW,2013-03-25 04:30:00,
2013-03-24 23:35:00,29.3,22.4,29.81,North,0,8.5,14.3,75,0.00,,,0.01,WUHU216HW,2013-03-25 04:35:00,
2013-03-24 23:40:00,29.2,21.9,29.81,NNE,23,12.8,14.3,74,0.00,,,0.01,WUHU216HW,2013-03-25 04:40:00,
2013-03-24 23:45:00,29.2,22.2,29.81,North,0,7.6,14.1,75,0.00,,,0.01,WUHU216HW,2013-03-25 04:45:00,
2013-03-24 23:50:00,29.2,21.9,29.81,North,0,9.2,14.1,74,0.00,,,0.01,WUHU216HW,2013-03-25 04:50:00,
2013-03-24 23:55:00,29.2,21.9,29.81,North,0,8.1,14.3,74,0.00,,,0.01,WUHU216HW,2013-03-25 04:55:00,